Location: Wallasey
(53.4265°N, 3.0662°W)
Time: 16:14:03
(UTC+01:00)

NOAA 18 - Pass Details

Date: 23 September 2019
Orbit: 841 x 861 km, 99.1° (Epoch: 14 October)

Event Time Altitude Azimuth Distance (km) Brightness Sun altitude
Exits shadow 21:01:30 18° 155° (SSE) 1,986 6.7 -17.1°
Maximum altitude 21:05:44 80° 71° (ENE) 881 5.2 -17.7°
Drops below altitude 10° 21:11:19 10° 345° (NNW) 2,513 8.2 -18.4°
Sets 21:13:42 0° 345° (NNW) 3,454 9.0 -18.7°
